Theta_e
338 339 339 339 339 339 339 339 338 338 339 339 339 339 339 339 337 336 333 330 328 328 329 331 330 330 331 332 331 331 331 332 333 333 333 334 334 333 332 331 329 327 327 331 331 330 329 329 328 328 328 326 325 326 326 327 325 324 326 327 326 326 326 325 324 323 323 324 323 322 319 321 323 324 324 324 324 324 324 325 327 329 330 330 331
339 339 339 340 339 339 339 339 339 338 338 339 339 338 338 338 338 338 337 335 333 331 329 332 333 332 331 332 332 332 332 332 333 333 333 334 334 334 333 331 330 327 326 330 331 330 329 329 329 329 329 328 327 326 327 328 327 326 327 327 326 325 325 324 322 322 323 323 323 321 319 320 322 324 324 324 324 324 324 324 327 329 330 330 330
340 339 339 339 339 339 338 338 338 338 338 338 338 338 338 338 337 337 337 337 337 335 332 332 333 334 333 332 332 333 333 332 331 333 333 334 334 334 334 332 331 328 326 328 329 330 330 329 329 330 330 329 328 327 328 328 328 327 327 327 326 325 323 322 321 322 323 323 322 320 320 320 321 323 324 323 323 324 324 324 326 328 329 330 330
339 339 339 339 338 338 337 337 337 337 337 337 336 337 337 337 337 337 337 337 337 337 336 335 335 335 334 333 332 332 333 333 331 332 333 333 334 333 333 333 332 329 326 327 328 329 330 330 329 330 330 329 327 328 327 328 329 328 327 326 325 324 323 321 321 322 322 322 322 321 321 321 321 323 323 322 323 323 323 324 326 328 329 329 330
339 339 338 338 337 337 337 337 337 336 336 336 335 336 336 336 336 336 336 336 336 337 337 337 336 336 335 334 333 332 333 333 332 331 332 333 333 333 333 333 333 331 327 326 327 328 329 330 330 330 330 329 328 327 328 329 328 327 327 326 324 323 322 320 320 321 321 321 322 322 321 321 321 322 322 322 323 323 323 323 325 327 328 328 329
338 338 337 337 337 336 336 336 336 335 335 335 335 335 336 336 335 335 335 336 336 336 337 337 337 337 336 335 334 333 332 333 332 332 332 333 333 332 332 332 332 332 330 327 327 327 328 329 330 330 330 330 328 327 328 329 328 327 326 325 324 322 320 321 321 321 322 321 322 321 321 321 320 320 321 322 323 322 322 322 324 326 326 327 328
338 337 337 336 336 336 335 335 335 335 335 335 335 335 335 335 335 335 334 335 336 336 336 336 336 336 336 335 334 334 333 332 333 333 333 333 333 332 331 332 331 331 330 330 329 327 327 328 329 330 330 330 328 327 328 328 327 326 325 324 324 322 321 321 321 321 321 321 320 320 321 321 320 320 321 322 323 322 321 321 322 325 325 326 326
337 337 336 336 336 335 335 335 335 335 335 335 334 334 334 335 335 334 334 334 335 335 335 336 336 336 336 336 335 334 334 333 333 332 333 332 332 332 331 331 332 331 330 330 331 329 328 327 328 329 329 329 328 326 328 328 326 325 323 323 323 322 321 321 321 321 321 320 319 319 321 321 320 320 321 322 322 322 321 320 321 322 324 325 325
337 337 336 336 336 336 336 335 335 335 335 335 335 334 334 335 334 334 334 334 334 334 335 335 335 335 334 335 335 335 334 333 333 332 332 332 331 331 330 330 330 330 330 329 330 331 329 327 327 328 328 328 328 326 327 328 326 324 323 323 323 322 322 321 320 320 321 321 320 320 321 321 320 321 322 321 321 321 321 321 320 321 322 323 324
338 337 337 337 336 336 335 335 335 335 335 335 335 335 335 335 334 334 334 334 334 334 334 334 334 334 333 334 334 334 334 334 333 332 332 332 331 331 330 330 329 329 330 329 329 330 330 329 328 328 327 327 327 326 327 327 326 324 323 323 322 322 322 321 320 320 322 321 320 320 320 319 319 321 320 320 320 320 320 319 318 318 319 320 322
337 337 337 336 336 335 335 334 335 335 335 334 334 335 334 334 334 334 334 334 333 333 333 333 332 332 333 333 333 333 333 333 333 333 332 332 332 332 331 331 330 330 330 329 329 329 330 330 330 329 328 327 326 326 326 326 325 324 323 323 322 322 322 321 321 321 321 320 319 320 321 320 319 319 319 319 320 320 320 319 318 318 318 318 319
336 336 336 335 335 335 334 334 334 334 334 334 334 334 334 334 334 334 334 334 333 333 332 331 331 332 332 332 332 332 332 332 332 332 332 332 332 332 332 331 331 330 330 329 329 329 330 330 330 330 329 328 326 325 326 326 324 324 324 323 323 323 322 322 323 322 320 320 320 321 322 321 320 320 321 321 322 322 322 322 322 321 320 319 318
335 335 335 335 335 335 334 333 333 333 333 333 332 333 333 333 333 333 333 333 334 333 333 332 331 332 331 332 332 331 332 332 331 331 332 332 332 332 331 331 331 330 330 329 328 329 331 330 330 330 330 328 327 325 326 325 324 324 324 323 323 323 322 322 324 322 320 321 323 323 323 322 321 322 323 323 324 324 324 323 323 322 322 321 319
334 335 335 335 334 334 333 333 333 332 332 332 332 332 332 332 332 332 333 333 333 333 333 333 332 332 332 332 332 332 332 331 331 331 331 331 331 331 331 331 332 331 330 330 329 329 329 330 330 330 330 329 327 326 326 325 324 323 323 323 323 324 322 322 324 323 320 322 324 323 323 323 323 323 324 324 324 324 324 324 323 323 323 321 320
333 333 332 332 333 333 333 332 332 332 332 331 331 331 331 331 331 332 332 333 332 332 332 333 333 332 332 332 332 331 332 332 332 331 331 331 331 331 332 331 331 331 330 329 329 328 328 329 330 330 330 329 327 327 326 325 325 323 322 323 323 323 323 322 324 324 322 323 324 323 322 323 323 323 323 324 324 324 324 324 324 323 323 322 321
331 331 331 331 331 330 330 330 330 330 331 330 330 331 331 331 331 331 332 333 333 333 333 333 333 332 332 332 332 331 331 332 332 332 331 331 331 331 331 332 331 331 331 330 330 329 328 328 329 329 330 329 328 327 326 325 325 323 322 323 323 322 323 323 323 325 324 323 323 323 322 322 323 323 324 324 324 324 323 324 324 323 323 323 322
330 330 330 330 330 329 329 329 329 329 329 329 329 329 329 330 330 329 330 331 332 332 333 333 333 332 332 332 333 332 332 332 332 332 332 331 331 331 331 331 331 331 331 331 330 330 329 328 329 329 328 328 328 327 326 326 325 323 322 323 323 322 323 323 324 325 325 324 324 323 321 322 323 323 324 324 323 323 323 323 323 323 323 322 322
329 329 328 328 328 328 328 328 328 328 328 328 328 328 328 329 329 329 328 329 330 330 331 332 333 333 332 333 332 331 332 332 331 331 332 332 331 331 331 331 331 331 331 331 330 330 329 329 329 329 327 327 328 328 326 326 325 324 323 323 322 322 322 323 324 326 326 325 324 322 321 323 323 324 324 323 323 323 323 323 323 323 322 321 321
328 327 327 327 327 327 327 327 327 327 327 327 327 328 328 328 328 328 328 329 329 329 329 330 331 331 332 332 331 328 329 331 331 331 332 332 332 331 331 331 331 331 331 331 331 330 329 329 329 330 328 326 328 328 326 327 326 325 324 323 321 322 322 322 323 325 326 326 324 322 322 323 324 324 324 323 323 323 323 323 322 322 321 320 320
327 326 326 327 327 327 327 327 327 327 327 326 327 327 327 327 327 327 328 328 328 329 329 329 330 330 330 331 330 327 327 330 331 331 331 331 331 331 331 331 331 331 331 331 331 330 329 329 329 329 329 326 327 328 327 327 326 325 325 322 320 321 321 321 322 324 326 326 325 324 322 324 324 324 324 322 321 322 323 322 322 322 321 319 319
326 326 326 327 327 327 327 327 327 327 327 327 327 327 327 327 327 327 327 327 328 329 330 330 330 330 330 330 330 328 327 328 329 329 329 330 330 331 331 332 331 331 331 331 331 330 330 330 329 329 329 327 326 327 327 327 326 326 325 322 320 319 320 321 322 323 325 326 326 325 324 325 325 324 325 321 318 321 323 322 322 322 321 319 317
326 326 326 326 326 327 327 327 326 326 327 327 328 327 328 328 328 328 327 326 327 328 329 329 329 330 330 330 329 330 328 328 328 328 329 330 330 330 332 333 333 332 331 331 330 330 330 330 329 329 329 328 327 327 327 327 327 326 325 323 320 319 320 321 322 322 324 325 326 326 325 325 325 325 325 321 317 319 322 322 322 322 321 319 317
326 326 325 325 326 326 326 326 326 327 327 327 327 327 328 328 327 327 327 327 327 327 328 329 329 329 329 329 329 329 329 329 328 327 328 329 329 330 331 332 333 333 332 331 329 329 330 330 330 329 329 328 328 327 327 327 327 326 325 323 321 320 320 321 322 322 323 325 326 326 325 325 325 325 326 322 318 319 321 321 322 322 320 318 316
325 325 324 324 324 325 325 326 326 326 326 327 327 327 327 327 327 327 327 327 328 327 328 328 328 328 328 328 328 328 329 330 329 328 328 328 329 330 330 331 332 333 332 331 330 329 329 330 330 329 328 329 328 327 326 327 327 324 323 323 322 321 320 320 322 322 322 324 325 325 325 325 326 325 326 323 319 319 322 321 321 320 319 318 316
324 323 323 323 323 324 324 325 325 324 324 325 326 326 327 327 327 327 327 327 327 327 327 327 327 328 328 328 328 328 328 329 329 329 329 329 329 330 330 330 331 333 332 330 330 329 329 330 330 329 329 329 329 327 326 327 327 323 322 323 323 321 320 320 320 321 322 324 325 325 325 326 326 326 326 325 321 319 320 320 319 318 317 317 316
323 322 322 322 323 323 323 324 324 324 324 324 324 325 326 326 326 327 327 327 327 326 326 327 327 327 328 329 329 328 329 329 329 329 329 329 329 330 331 331 331 332 332 330 330 330 330 330 330 330 329 328 329 328 326 327 327 325 323 323 323 322 321 320 320 320 321 323 325 325 325 325 326 326 326 326 323 319 319 319 318 316 315 315 316
321 321 321 322 322 322 322 323 324 324 324 324 324 325 326 326 326 326 327 327 327 326 326 327 327 327 327 327 327 328 328 328 328 329 329 329 329 330 330 330 331 331 331 331 331 330 330 330 330 330 329 329 329 328 328 328 329 327 324 323 324 323 322 321 320 320 320 322 324 325 325 325 326 326 326 325 323 320 318 318 318 316 314 314 315
321 321 322 322 322 322 322 323 324 324 324 323 324 324 325 326 325 325 326 326 326 326 325 326 326 326 326 326 327 328 328 328 328 328 328 329 329 330 330 329 330 332 332 332 332 331 330 329 330 330 330 329 329 328 329 329 329 329 327 324 324 325 323 321 321 320 320 321 323 324 325 325 325 326 326 325 324 322 318 317 318 316 313 312 315
320 321 321 322 322 322 322 323 323 324 323 323 323 323 324 325 325 325 325 326 326 326 325 326 326 326 326 326 327 328 327 327 328 328 328 329 329 329 329 329 330 331 331 332 333 332 331 330 330 330 330 329 329 328 328 329 329 330 329 325 324 325 324 322 321 320 320 320 321 323 324 325 325 325 326 325 324 323 319 316 317 317 313 311 314
321 321 321 321 322 322 321 321 322 322 322 322 322 323 324 325 325 325 325 326 326 325 325 325 326 326 326 325 326 327 326 326 327 328 328 329 329 329 329 329 329 329 330 332 332 331 331 330 330 330 330 330 330 329 328 328 328 328 329 326 323 325 325 324 322 321 320 320 320 321 323 325 324 324 325 325 324 324 321 316 315 316 314 310 313
320 319 318 320 321 319 318 318 320 321 321 322 322 323 324 324 324 324 324 325 325 325 325 325 325 325 325 325 325 325 326 326 327 327 327 327 328 328 328 329 329 329 330 330 331 330 330 330 330 329 330 330 330 329 329 328 328 328 328 326 324 325 326 325 323 322 321 320 320 320 322 324 324 324 325 325 325 324 323 319 315 315 314 311 313
316 315 315 316 317 316 315 317 318 319 320 322 322 321 322 323 323 323 323 323 323 322 322 322 323 323 323 322 322 323 324 325 326 326 326 326 326 327 327 328 329 329 329 329 330 330 329 329 330 330 329 329 330 330 329 329 328 328 327 326 326 325 325 325 324 323 322 321 320 320 321 323 324 324 324 325 325 324 324 322 317 314 312 309 312
314 313 314 314 314 314 315 316 317 318 319 320 320 319 320 321 320 320 320 319 319 319 320 320 320 320 321 320 320 320 321 323 324 325 325 325 326 326 326 327 328 328 329 329 329 329 328 328 329 329 329 329 329 329 329 329 329 328 327 327 327 326 324 324 324 323 322 321 321 321 320 322 323 324 323 324 325 325 324 323 320 317 312 308 311
313 314 314 314 313 314 316 316 317 317 317 318 319 319 319 319 318 317 316 316 317 317 317 318 318 318 319 319 318 318 318 320 321 323 324 325 325 326 326 326 327 327 328 329 329 329 328 327 326 327 328 328 329 329 329 329 329 328 328 327 327 327 326 325 324 324 324 322 321 321 321 321 323 324 324 323 324 324 324 322 320 318 314 308 310
313 313 314 314 313 313 315 316 315 314 315 316 317 317 317 317 316 315 314 314 315 314 315 315 316 316 317 317 317 316 316 317 318 320 322 324 324 325 325 326 326 326 326 327 328 328 327 325 325 326 326 327 328 328 328 329 329 329 328 328 327 327 327 326 325 325 325 323 321 321 321 321 322 323 324 323 324 324 323 322 320 319 316 310 308
312 312 312 312 312 311 312 313 312 312 313 313 314 314 314 314 313 313 313 313 313 313 313 313 314 314 315 315 315 315 314 314 315 316 318 321 323 324 325 326 326 325 326 326 326 326 326 325 325 325 326 326 327 327 328 328 329 329 328 328 328 327 326 326 326 326 326 325 322 322 322 321 321 322 323 323 324 324 323 323 321 319 318 314 308
311 310 310 311 310 310 310 310 311 311 311 311 312 312 311 312 312 312 312 312 313 313 313 313 313 313 313 313 313 313 313 312 312 313 314 317 320 322 323 324 325 325 325 325 325 325 325 326 326 325 325 325 325 326 327 328 329 329 328 328 328 327 326 326 326 326 326 326 324 322 322 321 320 321 322 323 324 324 323 323 322 321 320 317 311
309 309 309 309 309 308 308 308 309 309 309 309 310 310 311 311 312 312 312 312 313 312 312 312 312 312 313 313 313 313 312 311 310 310 311 313 315 316 317 320 323 324 325 325 325 324 325 325 325 325 324 324 324 325 326 327 327 327 327 326 327 327 326 325 325 325 325 325 325 324 323 322 320 320 322 323 323 324 323 322 323 322 321 319 315
308 308 308 308 307 307 306 306 306 307 307 308 308 309 310 311 310 310 310 311 311 311 310 310 311 312 313 312 312 312 312 311 309 309 309 309 310 311 312 315 318 322 323 324 324 324 323 324 324 324 324 324 324 325 325 325 326 326 326 325 325 325 325 325 324 324 323 324 324 324 324 322 321 320 321 322 322 323 324 322 323 323 321 321 318
307 306 306 306 305 305 305 305 305 305 306 307 307 309 310 310 309 308 308 309 309 309 309 309 310 311 312 312 311 311 311 311 309 308 307 307 308 308 310 311 313 317 319 320 321 322 323 323 323 324 324 324 324 324 324 325 325 325 325 325 324 324 324 324 324 323 322 323 323 323 323 323 322 321 321 321 322 323 323 322 322 323 322 321 320
305 304 305 305 305 304 305 305 305 305 306 306 307 309 310 309 309 308 308 308 308 308 308 308 309 309 311 311 310 310 310 310 309 308 307 307 306 306 307 308 309 311 314 316 317 319 320 320 320 320 321 321 321 322 322 323 324 324 324 324 324 323 323 323 322 322 322 323 323 322 322 323 322 322 321 321 322 323 322 321 322 322 321 320 321
304 304 305 306 306 305 305 306 306 305 304 304 306 308 309 308 307 306 305 305 305 305 305 306 306 307 308 309 308 309 310 310 309 308 307 306 306 305 305 306 306 307 309 311 313 314 315 314 312 313 315 316 316 316 317 319 321 322 323 324 324 323 322 322 321 321 322 322 322 321 321 322 322 322 321 321 322 322 322 321 321 322 321 320 320
303 304 305 305 306 305 305 304 304 303 302 302 304 306 306 306 304 303 303 303 303 303 303 303 304 304 305 306 306 308 309 309 309 309 307 306 306 305 305 305 305 305 305 307 309 310 310 309 307 308 309 310 311 311 312 314 317 319 320 322 323 323 322 322 322 321 320 321 321 320 320 321 321 321 321 321 321 321 321 322 321 321 321 320 319
302 303 303 303 303 303 303 303 302 301 301 302 303 304 304 303 302 302 301 302 302 302 302 302 302 302 303 304 304 306 306 307 307 308 308 307 306 306 305 305 305 305 305 305 305 306 307 306 305 304 305 306 307 308 309 311 314 317 318 319 321 322 322 321 322 321 320 321 320 318 318 320 320 320 320 320 321 321 321 322 321 321 320 319 319
302 302 302 302 302 301 302 301 301 300 300 301 302 302 302 301 301 301 300 301 301 301 301 301 301 301 301 302 302 303 304 306 306 306 307 308 307 306 305 305 304 305 305 305 304 304 304 304 304 303 302 303 304 305 308 310 312 314 316 317 319 321 321 321 322 321 320 320 320 318 317 318 318 319 320 320 320 321 322 322 321 320 320 319 319
301 301 301 301 301 301 301 301 300 300 300 301 301 301 301 300 300 300 300 300 300 300 300 300 300 300 300 301 301 301 301 303 304 305 306 307 307 306 305 305 304 303 303 303 303 303 303 303 302 302 302 302 302 304 307 309 310 312 314 315 316 318 320 321 321 321 320 319 319 319 317 316 317 318 318 318 319 320 321 321 321 321 320 319 319
300 300 300 300 300 300 300 300 300 300 300 300 300 300 300 300 300 300 300 300 300 300 300 299 299 298 298 299 300 300 300 301 302 303 304 305 306 306 305 304 304 302 301 301 302 302 302 302 301 301 301 301 302 303 305 307 308 309 310 311 313 314 317 319 320 320 319 318 319 318 314 313 315 316 313 314 315 316 318 319 319 320 320 319 319
299 299 299 299 299 300 300 300 300 300 300 300 300 300 300 299 300 300 301 300 300 300 300 299 299 298 297 298 298 298 299 299 300 301 302 303 305 305 305 304 304 303 302 301 301 301 301 301 301 301 301 301 301 302 303 304 305 306 307 308 309 311 313 316 318 318 318 318 318 317 311 308 310 311 308 308 310 311 312 314 315 317 318 319 319
299 299 299 300 300 300 300 299 299 299 299 299 299 299 299 299 300 301 300 300 300 300 299 299 299 298 297 297 297 298 298 299 299 299 300 302 303 304 304 304 303 303 303 302 301 301 301 300 300 300 300 300 300 301 301 302 303 304 305 306 307 308 309 312 314 315 316 316 315 315 310 305 306 307 304 305 307 307 308 310 310 312 315 317 317
299 299 299 299 300 300 299 298 298 298 298 298 298 298 298 298 299 300 300 300 300 300 299 299 299 298 297 297 297 298 298 298 299 299 299 300 302 302 303 303 303 302 302 302 302 302 302 301 301 301 300 300 300 300 300 301 302 303 303 303 305 306 307 308 309 311 314 314 312 312 309 305 306 308 305 304 305 304 304 306 307 308 311 313 314
298 298 299 299 299 299 298 298 298 298 298 298 297 297 297 297 298 299 300 299 299 299 299 299 298 298 297 297 297 297 298 298 298 298 298 299 300 300 301 301 302 302 301 301 302 302 302 302 302 302 301 301 301 300 300 300 301 301 302 302 303 304 304 305 306 308 310 309 308 310 309 305 306 309 308 306 304 301 301 304 304 304 307 310 311
Wind_Speed
4 5 6 6 7 8 8 9 9 9 8 7 7 7 7 7 7 7 7 9 10 10 9 8 9 10 9 10 11 12 11 10 10 10 11 11 13 14 14 13 12 10 9 9 9 9 9 10 9 9 8 6 6 6 7 7 6 6 6 5 5 5 4 4 3 1 1 1 1 2 1 3 4 5 5 5 6 6 7 8 9 10 11 12 12
5 6 7 7 9 9 8 8 8 9 9 8 8 9 8 8 9 9 9 10 10 11 11 10 9 9 11 11 12 12 12 12 12 12 12 12 12 15 16 15 14 12 10 11 11 10 10 10 10 10 9 8 7 8 9 9 8 7 6 6 5 5 4 2 1 3 3 3 2 1 2 4 5 5 5 5 5 6 8 8 10 12 12 12 12
7 7 8 9 9 9 8 8 8 8 8 8 8 9 9 8 9 9 10 11 12 13 13 12 10 9 11 12 13 13 13 14 15 14 14 13 13 15 17 17 16 15 13 14 12 11 11 10 10 11 9 9 8 8 10 9 8 7 7 6 5 4 4 4 5 4 4 4 4 3 3 5 5 5 5 5 6 7 8 9 10 13 13 13 14
9 9 10 10 9 8 9 9 8 8 8 8 9 9 9 8 8 8 9 10 12 14 16 16 14 12 11 12 14 16 15 15 17 16 15 15 14 14 17 18 17 17 15 16 15 13 13 11 11 12 10 9 9 9 10 9 8 8 7 6 5 5 4 5 6 4 5 5 4 4 4 5 6 6 4 5 6 7 9 10 11 12 13 13 15
10 10 11 11 10 10 10 10 8 8 9 10 10 8 7 8 8 8 8 9 10 11 13 15 15 14 14 14 15 16 15 15 17 18 17 17 16 15 18 19 17 17 17 17 18 15 15 13 12 12 12 11 10 10 10 9 9 8 7 7 6 6 5 5 5 5 6 6 5 5 5 5 6 7 5 5 7 8 9 10 12 13 12 13 13
9 9 10 10 10 10 10 10 10 10 11 11 12 9 7 8 8 9 8 9 10 10 11 12 13 13 13 16 17 16 17 16 16 18 17 17 16 16 18 20 18 19 18 18 19 18 17 15 14 14 13 13 11 11 11 10 9 8 8 8 7 6 6 5 6 6 6 6 6 6 7 7 7 8 7 7 7 8 9 10 12 13 12 12 12
7 8 9 10 10 10 10 10 11 11 11 11 12 11 9 8 9 11 10 9 10 10 11 12 13 12 12 14 16 17 18 19 18 17 16 16 16 16 18 20 20 21 20 18 18 20 19 17 16 16 15 15 13 12 13 11 10 9 9 9 7 7 7 6 6 6 7 6 6 7 9 8 8 9 10 9 9 9 9 9 12 13 12 12 12
6 7 9 10 11 10 9 10 11 11 10 10 11 11 9 8 8 10 11 11 11 12 12 12 13 13 12 13 13 14 15 18 20 18 17 16 16 16 16 18 20 23 22 20 17 18 20 19 18 17 17 16 14 13 13 13 11 10 10 10 9 8 8 7 7 7 8 7 7 9 10 9 9 11 11 10 10 9 9 9 11 13 13 13 12
6 8 9 9 10 9 9 10 10 10 9 8 9 8 8 8 9 9 10 11 12 13 13 12 12 12 13 13 14 13 13 16 19 19 18 17 17 17 16 18 21 23 25 24 20 17 18 19 19 19 18 18 16 14 14 13 12 10 10 10 10 10 9 8 8 9 9 8 9 10 10 10 10 11 11 11 10 10 9 9 10 11 12 13 13
6 7 7 8 9 9 9 8 7 7 7 7 8 8 8 9 10 10 10 11 12 12 12 12 12 13 14 15 14 14 13 15 16 17 16 17 19 19 19 21 23 24 27 26 23 19 17 17 19 20 20 20 18 16 15 15 13 11 11 10 10 11 10 8 10 10 9 9 11 12 12 12 11 11 11 11 11 11 11 11 12 11 12 12 13
5 6 6 6 6 6 7 7 6 6 6 7 8 8 9 10 11 12 11 12 13 13 13 13 13 14 14 15 15 14 13 13 14 15 15 16 18 19 20 23 25 26 28 28 26 23 19 17 16 18 20 20 21 18 17 17 15 13 13 12 12 12 11 10 11 11 10 11 13 14 14 14 13 13 13 14 14 14 14 14 14 14 14 14 14
4 4 4 4 4 5 5 6 5 6 7 8 8 9 10 10 11 13 13 14 15 14 14 14 13 13 14 16 16 15 14 12 13 14 14 14 15 16 17 19 23 27 28 28 28 23 18 18 17 16 17 19 21 20 19 19 16 15 14 13 13 13 12 12 12 11 13 15 15 16 16 16 15 15 15 15 15 14 14 14 14 15 15 14 14
2 2 2 3 4 4 5 5 6 6 7 8 9 10 11 12 13 14 14 16 17 16 15 14 13 12 13 15 16 16 14 12 13 14 14 14 14 14 14 15 18 23 27 29 30 24 18 19 19 18 16 16 18 20 21 20 18 17 16 14 15 14 13 13 13 14 16 16 15 15 16 17 16 15 14 14 13 13 13 14 14 14 14 14 15
2 2 2 3 3 4 5 5 6 7 8 9 10 11 12 13 13 14 15 16 18 17 16 14 12 11 11 11 12 14 13 13 15 15 14 14 14 14 14 15 15 18 24 28 30 29 24 21 20 20 19 17 17 17 19 20 19 20 18 16 16 15 14 14 14 16 17 17 16 16 15 16 16 15 15 14 14 13 14 14 14 15 15 15 16
2 3 3 4 4 5 5 5 6 7 8 9 10 11 12 13 14 15 15 16 17 17 17 16 15 13 10 8 7 7 9 10 13 16 15 14 15 15 14 15 16 16 20 25 29 32 29 23 20 21 21 19 18 17 18 19 19 21 20 18 17 17 16 16 16 18 18 17 17 16 15 16 16 16 15 14 14 13 14 15 15 16 16 16 16
4 4 4 4 4 5 5 6 7 6 7 9 10 11 12 13 15 15 15 15 16 16 16 17 19 16 8 4 3 4 8 7 9 13 14 15 16 17 16 16 16 15 16 19 24 29 30 28 24 22 22 21 20 19 19 19 20 21 21 19 19 18 18 17 18 19 18 18 18 16 16 17 17 17 15 14 15 14 15 15 15 16 17 16 16
5 5 5 5 5 5 5 6 6 6 7 8 10 11 12 13 14 16 16 16 17 17 17 17 19 20 15 9 3 3 6 5 6 8 9 13 15 17 18 17 16 17 18 18 19 22 26 30 27 24 26 24 22 22 20 20 20 21 21 22 20 19 19 19 20 21 19 19 19 18 19 20 18 17 16 15 15 15 16 16 16 16 16 16 15
6 6 6 6 6 6 6 6 6 6 7 8 10 11 12 12 13 15 16 16 17 18 19 18 17 20 22 20 15 13 10 4 4 5 6 10 13 15 18 19 19 19 20 20 19 19 21 26 26 25 29 28 24 24 23 21 22 21 21 23 23 21 21 21 21 21 20 20 20 19 20 20 19 18 17 16 16 16 16 16 17 16 16 15 15
8 8 8 8 7 7 7 7 7 7 8 9 10 11 12 13 13 15 16 17 17 18 20 19 17 18 20 23 25 24 20 12 7 6 6 8 10 12 15 17 19 20 22 21 20 20 21 26 27 24 27 29 26 25 24 22 22 23 22 23 26 24 23 23 23 21 20 21 21 20 21 21 19 19 18 17 16 16 17 17 17 16 16 15 15
9 9 9 9 8 7 7 7 7 8 9 10 11 12 13 14 15 16 17 18 17 17 21 19 17 17 17 18 19 20 23 23 17 11 7 7 8 10 12 15 17 19 22 22 23 24 24 27 28 26 28 30 29 26 24 24 23 24 24 24 26 26 25 24 23 22 21 22 21 20 22 22 20 20 19 18 18 18 18 18 17 16 15 14 14
9 9 9 9 9 9 9 9 9 9 11 11 12 13 13 14 15 16 16 18 16 16 19 19 18 17 15 15 13 14 20 23 21 15 11 10 9 9 10 12 14 18 22 23 24 26 26 27 28 28 28 29 31 28 24 25 24 23 25 26 26 26 26 25 24 24 22 23 23 22 22 22 21 22 21 20 19 19 19 18 18 17 15 14 15
9 9 10 11 10 11 11 11 11 11 11 12 13 14 14 14 15 16 16 17 17 17 19 20 19 18 15 14 13 13 12 11 14 15 14 12 11 10 10 10 11 16 21 24 26 26 26 27 26 26 26 27 31 31 26 25 25 24 26 27 27 27 28 26 26 25 23 23 25 24 24 23 23 23 22 21 20 20 20 20 19 17 16 15 15
11 11 12 12 12 12 12 11 11 12 12 12 14 15 15 15 16 17 16 16 17 18 18 18 19 18 15 13 14 13 10 7 9 13 12 11 10 9 11 13 13 15 18 22 26 27 26 27 27 24 25 29 32 32 29 26 27 28 29 29 27 27 28 27 26 26 25 25 26 26 25 24 24 24 23 23 21 21 21 21 20 18 16 16 17
13 12 14 14 13 12 12 11 11 13 13 13 13 14 15 15 15 16 16 16 18 19 18 17 18 19 17 14 14 14 13 11 11 12 13 15 13 8 11 15 13 14 17 19 22 26 27 28 28 26 26 29 32 34 32 27 29 32 32 30 28 27 28 28 27 27 27 26 26 28 27 25 24 24 25 24 23 22 21 21 21 20 18 17 18
13 14 15 16 15 14 14 13 14 15 15 14 14 13 14 15 15 15 15 16 17 17 18 17 16 17 16 16 16 15 14 14 14 15 15 16 15 10 12 15 13 12 14 17 19 22 26 28 28 27 27 28 30 33 33 28 29 33 33 31 30 29 28 29 29 28 29 28 27 28 28 25 24 25 25 25 25 24 23 24 24 23 21 20 20
13 15 16 15 16 16 15 15 16 16 15 15 15 13 13 14 15 15 14 14 15 16 17 16 15 16 16 15 17 17 17 16 16 16 16 16 15 12 11 12 12 11 11 15 19 18 20 26 29 28 28 29 28 30 32 32 33 34 33 32 32 31 29 29 30 30 30 31 28 27 29 26 24 24 25 26 26 25 25 26 26 24 23 22 22
13 15 14 14 15 15 15 15 15 15 15 16 16 14 13 13 14 15 14 13 13 15 17 15 15 16 16 16 17 18 17 17 17 18 19 18 17 15 13 9 8 9 8 12 16 18 21 23 25 28 28 29 30 31 33 35 37 36 33 33 33 32 32 30 31 31 31 33 31 28 29 28 24 23 25 27 26 24 25 26 25 24 23 23 24
13 13 13 13 14 14 14 13 13 14 14 16 16 14 12 13 15 16 16 14 13 14 16 15 15 16 16 17 17 17 17 17 16 17 19 20 20 20 19 14 8 7 7 8 10 15 22 22 19 23 27 28 30 33 35 36 37 37 36 35 32 31 33 33 32 33 33 34 33 30 29 29 27 24 25 28 27 24 24 27 26 24 23 24 26
13 13 12 12 12 13 13 13 12 13 15 17 17 15 13 13 16 17 17 15 13 14 16 16 17 17 17 18 17 16 18 19 17 15 16 18 19 21 22 20 15 9 6 8 6 7 16 21 19 20 24 27 28 30 32 35 37 37 37 37 33 31 34 35 33 33 34 34 34 31 29 30 29 26 25 28 29 25 24 27 27 25 23 24 27
12 11 11 11 11 12 13 14 14 15 17 18 19 19 17 15 17 17 17 16 15 15 16 17 17 17 17 18 16 15 18 19 17 16 15 15 17 19 20 21 21 16 9 8 7 8 12 18 21 21 21 25 27 27 28 31 34 37 38 38 37 36 37 35 34 34 34 35 35 33 31 31 31 28 25 26 30 28 25 26 27 27 25 25 27
11 10 10 11 13 14 14 15 16 17 18 18 19 20 18 17 17 18 17 16 16 17 17 17 17 17 18 18 17 17 17 17 17 16 17 16 15 17 19 20 21 21 17 11 7 9 12 15 21 24 22 23 25 25 26 26 28 33 38 39 39 39 39 37 36 35 35 35 35 35 34 32 31 30 26 26 30 30 27 26 26 27 27 26 28
10 10 11 12 14 15 15 17 18 18 18 18 19 18 17 17 17 18 18 18 18 18 18 19 19 19 19 19 19 18 17 17 17 18 18 18 16 15 16 17 18 21 22 16 9 9 13 14 17 20 22 22 23 24 26 26 25 28 34 38 38 39 39 38 38 37 36 36 36 36 36 34 32 31 28 27 31 32 29 27 26 27 27 28 29
10 11 12 14 15 16 18 19 19 18 18 18 18 17 17 17 17 18 19 18 19 19 19 20 20 20 20 20 20 20 19 17 18 18 18 19 18 16 15 15 16 18 20 18 12 9 11 13 12 14 17 19 21 24 26 28 27 27 30 35 37 38 38 38 39 39 38 37 37 37 37 36 34 32 29 28 30 33 33 31 27 27 27 28 31
12 13 15 16 17 19 21 22 21 20 20 19 19 19 19 18 18 19 20 20 20 19 19 20 21 21 22 21 22 23 22 19 19 18 18 19 18 17 17 16 16 17 17 17 14 8 6 8 9 10 13 17 22 26 27 28 29 28 30 33 35 37 38 38 39 40 40 39 39 38 38 38 36 32 31 29 29 32 36 34 29 28 27 28 32
13 16 17 18 17 18 21 23 22 20 20 19 20 21 20 20 21 20 21 22 21 20 20 20 21 21 22 22 23 25 25 23 22 20 18 19 18 17 18 18 16 18 17 13 11 6 3 4 6 9 11 14 19 24 24 26 28 28 29 33 35 36 38 38 39 40 40 41 40 38 37 37 37 34 32 31 29 30 35 35 31 30 28 27 32
14 15 16 17 16 15 18 20 19 18 18 17 18 19 20 20 20 20 21 22 20 19 19 19 21 22 23 23 24 26 27 27 26 24 21 20 19 17 17 17 16 17 16 13 10 8 6 6 7 10 12 12 14 16 18 21 25 26 28 30 33 35 37 38 39 39 40 41 41 39 37 37 38 36 34 33 29 27 31 34 33 31 28 27 31
14 14 14 15 16 16 17 17 17 18 17 17 17 18 18 18 17 17 18 19 19 19 20 21 23 23 22 23 23 26 29 31 31 29 26 23 21 19 17 17 16 15 15 13 12 11 10 9 9 10 12 13 13 13 14 17 21 22 25 29 31 34 36 38 38 38 39 40 41 41 39 38 38 38 36 34 31 28 28 31 33 33 31 28 30
13 13 14 15 14 15 15 15 16 17 16 16 16 16 16 16 17 16 16 17 18 20 22 23 23 25 24 23 24 26 30 32 31 31 30 27 25 23 21 19 17 15 14 14 12 11 11 11 10 10 11 12 13 14 14 16 19 19 22 26 30 34 35 36 36 37 39 40 42 43 41 38 38 39 37 35 32 30 28 28 31 32 32 31 30
13 13 14 14 14 14 15 15 15 16 16 16 15 16 18 20 20 19 18 20 21 22 24 21 22 29 30 27 26 26 28 31 31 31 32 31 30 30 27 23 20 17 15 14 13 11 11 12 10 10 11 11 12 13 13 13 15 18 21 23 26 30 33 34 35 35 37 38 40 43 43 40 38 39 38 36 34 32 30 27 29 31 31 32 31
14 13 13 14 14 13 15 18 17 16 20 22 19 19 23 26 26 25 26 28 28 28 29 27 26 30 31 29 28 27 27 30 32 32 32 31 33 35 35 31 26 23 20 19 16 13 12 13 11 11 12 12 12 13 14 12 12 17 23 23 23 26 29 31 32 33 35 36 38 41 43 42 40 39 39 37 35 34 32 30 29 30 31 32 33
13 13 14 17 18 17 21 25 24 23 27 28 25 24 26 28 29 30 32 33 33 32 33 34 33 33 33 30 28 27 27 29 31 33 33 34 36 36 37 37 32 27 24 24 23 20 17 16 16 15 14 13 13 13 14 13 13 17 20 21 20 21 24 25 27 31 34 35 37 40 43 44 42 41 40 39 37 36 34 32 32 32 31 32 35
13 16 20 24 26 25 26 28 28 29 30 28 25 25 26 28 29 30 32 33 34 33 32 33 33 34 34 32 27 27 28 26 27 31 34 36 38 38 40 41 38 32 27 25 26 25 22 19 20 20 17 16 19 20 17 15 14 14 14 16 18 17 17 16 17 24 31 34 35 37 41 43 43 42 41 41 40 38 37 35 34 34 33 33 35
16 23 27 28 28 27 27 28 29 29 28 26 25 25 26 28 30 30 30 31 32 33 31 30 30 30 32 32 31 32 31 25 22 26 30 33 35 38 41 43 42 40 34 28 25 26 24 22 23 24 20 19 23 25 22 22 22 19 15 13 15 17 16 12 10 14 24 32 34 36 39 42 42 41 41 42 42 40 39 38 36 35 34 34 36
24 28 29 29 29 28 28 28 28 28 27 25 26 26 27 29 31 31 30 29 29 30 30 29 30 29 30 32 34 36 34 29 24 21 23 27 30 32 36 40 43 43 41 36 29 26 25 25 25 27 25 23 26 28 25 24 23 20 19 18 15 13 14 15 14 14 20 29 33 35 38 41 41 40 39 41 42 42 41 39 36 36 36 36 38
29 30 31 31 31 30 29 29 28 27 26 26 26 27 29 30 32 33 31 29 28 28 28 28 30 31 30 29 33 36 35 33 31 25 20 22 26 29 31 34 37 40 41 40 36 31 28 27 28 29 28 25 26 29 29 26 23 20 18 17 17 14 11 15 18 18 19 25 31 32 32 35 38 38 36 37 40 41 42 40 38 37 37 36 38
30 31 32 32 33 32 31 31 30 29 27 26 26 28 29 31 32 32 31 30 29 28 28 29 30 32 31 29 29 33 35 34 33 30 24 21 22 27 29 29 31 34 38 38 35 33 31 30 30 29 30 31 31 32 32 29 25 21 19 17 16 15 14 15 18 19 18 21 29 27 21 26 34 34 30 31 35 38 40 41 40 39 36 34 38
31 32 32 33 33 33 33 32 32 31 29 27 27 28 29 31 31 31 30 29 29 29 29 30 32 34 34 32 30 33 36 35 33 31 27 22 21 24 26 26 26 29 34 36 34 32 31 32 33 32 34 36 37 37 36 34 31 26 23 23 23 19 16 13 15 17 18 21 26 20 10 15 27 28 22 23 27 29 34 38 39 40 38 34 36
32 32 32 33 32 32 32 33 33 32 29 27 26 26 28 30 29 27 27 26 26 28 28 28 32 37 37 35 33 34 36 36 33 32 30 25 23 23 24 24 24 24 27 30 33 32 31 32 33 33 34 35 37 38 38 37 35 32 32 34 33 29 24 14 8 9 12 17 22 19 10 10 18 23 18 14 17 17 22 27 29 34 36 34 35
32 32 32 31 31 31 32 32 32 31 29 27 26 25 26 28 26 23 23 23 23 25 27 25 28 34 38 37 35 35 37 36 34 34 33 29 25 24 24 23 24 24 23 24 28 31 32 32 33 33 34 34 35 36 37 38 38 38 40 38 32 29 26 15 8 6 3 5 10 15 14 13 14 21 20 14 12 10 9 14 17 23 28 29 32
31 31 31 31 31 31 31 31 31 30 29 27 27 26 26 27 26 21 20 23 22 22 24 25 25 29 34 37 37 35 35 35 35 36 37 34 28 25 24 24 25 26 24 22 23 25 28 31 32 33 36 37 36 36 35 36 38 40 40 35 28 27 26 18 14 14 8 5 6 7 12 14 16 20 19 15 12 11 8 8 11 15 21 24 28
30 29 29 30 31 30 30 29 29 29 28 26 26 26 26 27 27 22 19 22 23 21 21 23 25 27 30 33 35 35 33 34 35 37 39 38 33 28 25 24 24 25 23 22 22 22 23 27 29 29 32 34 35 36 36 35 36 38 37 34 32 31 26 21 19 16 8 8 11 5 6 14 17 18 14 10 8 10 10 9 10 12 17 21 25
Wind_Direction
341 337 337 335 334 336 335 332 332 329 323 318 316 318 315 313 318 315 302 288 278 274 275 279 270 260 254 255 264 269 271 268 265 263 265 270 266 260 257 255 253 249 228 214 222 231 230 229 229 233 242 233 207 211 214 212 211 200 190 179 174 165 158 154 134 161 232 212 127 99 122 142 135 137 133 126 117 117 126 123 107 100 102 107 109
336 330 331 328 329 331 329 327 327 323 317 312 308 310 309 306 304 300 298 293 286 279 274 273 268 260 259 261 264 269 272 275 276 272 270 271 268 261 256 253 252 250 235 219 219 224 229 227 229 235 230 227 222 216 216 215 216 211 197 186 176 173 180 193 242 247 230 214 219 232 201 170 149 143 140 133 122 118 127 127 114 105 104 109 109
336 332 331 329 328 327 328 331 329 325 316 308 306 307 306 303 299 294 291 287 285 281 276 273 267 258 260 264 266 267 268 275 282 280 276 273 266 258 253 251 250 249 239 230 226 218 222 227 227 230 227 230 235 227 227 222 211 205 198 192 184 181 204 245 256 242 213 215 230 221 189 179 166 150 140 135 127 119 127 134 125 114 111 112 108
338 334 330 328 328 327 331 334 332 330 323 316 310 305 302 299 296 294 291 286 283 280 277 274 271 265 261 262 265 267 265 270 279 281 279 275 268 257 248 245 247 248 242 235 233 220 218 226 226 225 225 229 234 234 236 225 206 196 193 195 195 201 219 240 241 215 204 223 221 195 182 180 174 161 150 147 136 123 129 137 133 124 118 116 111
333 328 325 323 324 326 329 331 331 327 324 320 314 307 301 298 295 294 292 285 282 281 280 277 274 270 266 264 263 266 264 263 272 276 276 274 270 261 247 239 239 245 244 238 235 228 221 223 224 225 225 225 231 240 235 217 207 199 197 203 202 217 241 233 219 202 209 220 199 183 184 176 174 168 165 166 153 138 135 139 141 136 127 122 118
325 321 319 317 318 320 323 324 325 323 322 319 314 311 304 300 298 300 296 286 281 281 282 280 276 273 271 270 268 268 267 265 268 270 270 270 267 260 246 237 235 237 240 239 236 232 227 223 223 225 227 226 230 239 231 211 210 208 206 213 205 222 241 216 196 195 196 196 189 189 187 178 176 172 170 176 167 152 145 145 147 144 135 129 125
318 316 315 315 316 318 320 321 322 321 320 319 317 313 308 304 304 305 303 292 286 286 285 283 279 275 271 271 271 271 272 271 270 269 267 265 262 256 246 238 237 236 236 236 235 234 231 225 222 224 228 229 229 235 229 215 218 218 216 218 209 218 221 194 183 189 187 192 199 194 186 181 178 175 176 177 170 160 154 150 150 149 145 139 134
314 316 318 319 320 321 322 322 321 319 315 315 315 312 309 306 303 303 301 296 293 292 290 287 283 278 273 272 273 272 272 271 271 270 267 262 256 250 244 240 240 239 237 234 232 233 233 228 222 223 226 225 224 230 228 219 222 223 221 217 208 210 206 189 184 187 191 195 190 184 181 181 179 176 175 174 171 164 156 152 150 149 148 148 146
324 323 323 321 321 321 321 321 319 316 311 309 308 307 307 304 300 297 296 295 292 291 289 287 286 283 279 276 275 274 271 270 271 270 265 259 252 245 242 245 245 245 241 237 233 231 233 231 224 223 225 223 223 226 224 219 220 220 217 210 205 205 200 192 190 190 194 190 179 176 174 175 176 173 172 172 172 168 160 155 152 150 150 150 151
320 316 316 316 318 319 320 321 317 311 306 304 303 304 304 300 298 294 290 287 285 285 285 285 285 283 281 277 274 272 270 269 268 266 261 255 250 248 247 247 245 244 241 238 236 233 230 229 227 227 227 226 226 225 222 221 221 222 217 208 203 201 196 191 189 188 188 183 176 172 168 168 169 170 174 172 169 167 158 148 142 143 143 140 143
313 310 313 315 318 320 323 323 314 307 303 302 302 302 301 299 296 293 288 283 282 283 282 282 282 279 278 276 272 269 267 266 263 260 257 253 252 250 250 249 245 241 238 236 236 235 229 225 224 227 230 230 227 222 221 222 222 224 219 209 203 198 195 191 189 184 175 173 171 168 165 160 157 157 158 155 152 151 145 139 134 133 132 132 137
326 322 322 319 320 324 329 327 316 308 303 302 303 300 299 298 294 291 288 283 281 281 282 284 283 279 278 276 274 272 268 263 259 256 254 253 253 250 248 247 244 241 237 234 234 234 229 226 222 223 227 229 227 221 221 223 220 219 215 207 202 198 196 194 191 180 170 170 168 169 167 157 153 152 148 146 145 144 141 139 136 133 132 132 135
356 340 327 320 323 326 330 327 322 317 311 308 308 305 301 299 297 294 290 288 286 282 280 280 276 274 278 277 274 273 270 264 259 254 252 252 253 251 247 243 241 239 237 234 233 232 229 229 226 224 224 225 226 223 225 227 223 217 211 206 202 197 197 196 190 180 175 174 171 174 171 161 160 160 156 153 151 150 148 146 143 140 138 136 135
23 7 343 330 324 320 320 318 318 321 322 319 314 308 304 300 298 297 295 293 291 287 282 272 261 262 274 278 275 271 265 261 259 254 250 251 250 248 245 240 237 236 238 238 236 234 232 231 228 226 223 221 223 221 223 226 223 218 211 204 201 196 198 197 188 183 184 180 174 177 175 168 169 169 167 163 159 159 157 153 151 147 144 140 136
35 12 355 343 330 319 316 316 317 319 318 315 309 303 300 297 294 293 293 292 287 285 282 269 258 260 268 272 276 278 266 254 252 251 249 247 244 242 241 239 239 237 239 241 240 238 234 230 228 227 224 221 220 218 219 219 218 219 213 202 199 196 198 198 190 187 189 183 175 180 181 175 176 176 173 168 163 165 163 158 156 153 150 145 143
21 7 359 347 339 332 328 325 322 315 306 304 301 298 297 295 294 291 289 286 282 281 279 272 263 259 257 258 253 267 268 262 259 254 245 243 241 239 240 240 240 239 237 236 237 237 234 232 231 228 225 223 221 219 218 218 217 217 211 204 200 197 197 198 195 193 192 183 177 182 186 180 179 180 177 173 169 169 167 162 160 157 152 149 149
18 12 6 356 350 345 340 333 326 318 310 307 305 303 300 297 295 293 288 284 285 286 283 277 267 258 252 249 239 263 268 276 284 262 234 238 242 240 240 240 240 238 236 234 232 233 233 234 233 229 227 227 225 221 218 217 216 213 210 207 203 197 197 198 199 200 195 185 179 183 189 185 182 182 180 178 175 172 169 167 163 159 155 155 153
17 14 8 1 357 354 353 345 338 333 328 321 314 310 305 301 297 295 292 288 288 288 284 280 274 264 255 249 244 251 261 270 283 269 236 237 239 239 241 240 240 238 236 236 232 229 231 233 232 230 230 228 225 222 219 216 214 211 208 208 205 197 196 200 201 203 198 188 183 185 192 191 184 184 182 179 178 175 173 171 166 163 162 161 157
15 12 8 6 3 1 359 354 352 346 340 331 319 313 307 302 299 295 293 291 289 288 286 285 282 275 268 260 250 246 253 254 248 267 268 247 229 230 239 240 239 239 237 237 234 231 231 235 233 230 230 229 224 220 218 216 214 212 209 207 206 198 197 202 202 204 201 192 187 189 197 196 187 186 184 179 181 179 177 175 171 169 168 164 162
16 14 10 9 7 4 1 357 356 350 344 338 326 323 320 313 311 305 296 293 293 291 289 289 287 283 284 279 263 256 261 254 242 250 269 269 253 238 238 238 238 239 238 237 236 235 234 235 234 232 232 229 224 220 217 216 214 212 212 211 207 200 199 203 201 202 205 198 193 194 198 196 189 187 185 183 184 183 182 180 176 173 170 169 169
18 18 14 13 7 3 1 357 356 351 344 340 335 334 333 327 322 315 306 300 296 292 290 292 292 287 290 290 277 273 270 253 242 245 248 255 266 259 244 231 231 238 238 237 238 238 237 235 233 233 231 226 225 224 218 216 214 211 214 214 207 201 201 203 201 203 207 202 197 198 198 194 192 190 187 187 187 185 185 183 179 177 174 175 173
15 15 12 11 6 2 1 357 355 351 346 343 343 344 341 334 325 319 317 312 304 299 298 300 297 288 287 290 286 286 280 252 241 247 245 247 258 265 259 238 229 235 234 233 236 238 238 235 232 230 227 224 225 225 220 218 215 210 213 214 207 203 202 203 204 205 209 205 199 200 200 196 195 193 190 190 188 185 186 185 183 180 178 180 176
11 12 9 6 3 2 1 359 357 353 350 349 346 344 341 336 330 326 325 322 315 311 306 306 307 301 291 284 282 285 285 270 253 246 240 243 250 259 258 249 244 242 237 235 237 239 239 235 231 226 225 227 223 221 221 221 217 214 216 215 209 205 204 204 206 207 209 208 202 201 203 201 199 195 193 193 190 187 187 187 187 183 180 179 176
10 11 6 3 3 3 2 0 357 354 353 351 345 342 340 337 336 335 333 328 323 321 316 312 315 314 308 296 287 282 279 278 277 264 248 246 247 250 258 256 251 248 245 241 242 242 239 235 232 225 226 230 226 222 223 220 219 220 220 217 212 207 206 205 206 208 208 209 207 204 204 204 203 200 197 196 193 189 188 190 191 188 185 180 175
10 8 2 5 10 10 8 4 1 360 357 354 348 343 345 345 344 341 338 335 333 332 327 321 319 319 315 306 295 290 286 283 283 280 269 260 255 254 261 262 259 255 247 240 242 244 239 234 232 227 226 230 227 224 221 216 219 223 220 218 214 209 208 207 206 208 209 209 209 208 206 206 206 203 199 196 196 193 189 191 193 191 189 183 177
7 6 3 9 17 14 11 10 8 5 2 359 357 352 351 352 351 348 343 339 341 345 342 336 333 328 322 313 306 302 297 290 283 278 272 265 261 262 267 265 259 257 248 237 237 238 235 234 232 228 226 228 225 220 218 219 223 225 222 218 216 212 209 209 208 208 208 208 210 209 207 209 208 202 200 198 197 196 193 195 197 195 192 185 178
8 10 9 13 15 13 13 11 8 8 8 5 4 5 4 2 0 357 352 344 342 350 352 348 346 341 336 331 327 322 313 303 290 280 275 270 265 265 267 266 257 253 246 236 233 231 232 232 230 227 226 228 225 222 223 226 226 227 225 219 217 215 211 209 210 209 208 208 211 210 208 211 211 204 204 200 196 197 196 196 199 199 194 183 177
14 15 16 15 14 13 13 11 11 14 13 10 11 14 13 10 11 8 2 356 349 353 357 355 352 349 346 344 343 342 338 329 311 294 288 281 272 264 259 258 260 258 252 242 233 231 231 228 226 226 226 227 227 226 228 228 226 226 227 221 216 215 213 210 210 210 209 209 211 212 210 212 212 208 207 201 196 198 195 195 200 202 195 184 179
19 20 19 18 17 16 16 17 21 23 20 18 21 25 23 19 20 17 11 7 3 0 0 359 359 357 353 352 351 347 347 346 335 320 308 296 285 274 265 260 259 258 261 254 241 227 224 221 222 227 225 225 227 227 227 228 226 224 225 223 217 216 215 211 210 210 210 210 212 213 211 212 213 212 211 202 196 200 197 196 202 204 198 188 181
22 20 18 21 22 21 22 26 29 32 30 28 30 33 32 25 22 19 14 12 11 7 4 3 2 2 359 357 356 350 348 348 343 334 325 311 298 289 281 272 263 255 256 261 251 235 218 214 221 227 226 225 226 225 224 226 226 224 224 222 218 220 221 214 211 212 211 210 213 214 213 213 213 212 213 205 199 202 201 198 203 205 200 190 181
22 18 18 23 28 26 25 28 34 38 37 35 36 35 30 23 19 17 16 15 14 11 9 7 5 4 3 0 357 354 351 349 344 341 338 330 318 307 298 285 269 255 249 253 255 240 221 216 225 228 229 229 225 223 224 225 226 224 224 222 220 223 224 219 214 213 213 212 212 214 214 213 213 212 213 209 202 203 203 200 203 205 202 193 184
24 21 23 28 31 30 27 32 38 41 40 39 36 29 21 19 19 18 17 15 15 14 12 12 11 9 8 6 3 359 355 352 349 347 345 341 333 327 319 304 284 265 250 243 248 247 230 224 229 228 229 230 225 224 225 226 227 225 223 222 222 223 223 222 220 216 215 215 213 214 214 213 213 212 213 210 204 204 205 203 203 204 203 196 187
32 31 34 36 36 35 36 38 40 39 37 36 31 23 19 19 19 18 17 15 16 16 14 14 14 11 9 8 7 5 2 358 356 354 352 349 343 337 336 328 310 290 267 245 242 254 237 227 234 234 230 230 228 228 227 226 226 225 223 223 224 224 222 222 222 219 217 217 216 215 214 214 213 211 213 212 208 207 208 205 203 202 202 196 189
47 47 48 48 48 47 46 45 44 42 39 35 31 29 27 25 23 22 21 21 21 19 16 14 12 11 12 11 9 8 6 4 2 359 357 357 354 347 344 341 332 322 299 262 244 250 243 231 241 247 242 238 235 232 228 225 225 224 224 225 226 227 225 223 222 220 219 218 218 218 215 214 213 210 212 214 213 210 207 203 201 201 201 196 191
59 59 58 58 56 52 50 49 47 45 42 38 38 39 38 37 37 34 33 32 27 23 20 15 12 12 13 14 12 9 8 7 6 3 1 1 358 354 351 348 342 340 329 296 263 258 268 254 250 253 253 249 242 235 228 225 225 223 223 226 228 228 226 224 222 222 221 218 218 219 218 216 214 212 212 213 215 213 207 204 203 201 200 197 194
66 64 61 59 54 50 50 49 46 44 41 39 40 43 44 44 44 40 37 35 31 28 26 22 20 20 19 18 16 14 13 12 10 7 4 4 4 358 354 352 348 347 343 328 305 294 291 280 270 264 260 258 253 243 235 231 228 226 225 226 227 225 224 224 223 223 223 220 217 217 217 217 215 213 212 212 214 213 209 209 208 203 200 199 198
66 62 58 57 53 50 49 46 44 45 43 40 38 40 43 42 42 41 38 37 36 36 37 34 31 28 25 23 22 21 21 20 17 14 9 6 8 5 359 356 353 347 347 343 326 308 293 283 280 274 265 263 262 255 246 241 237 234 231 228 227 225 222 222 222 222 222 220 216 214 215 216 216 215 213 212 212 211 208 210 210 206 203 201 200
65 61 59 57 53 50 48 45 45 44 42 43 41 39 40 41 43 44 40 39 39 39 40 38 35 35 34 31 31 30 28 27 25 22 20 17 13 11 7 4 0 351 347 347 338 322 308 299 294 288 280 271 265 259 252 247 243 242 239 233 228 225 221 218 218 218 220 220 216 212 212 213 215 215 214 213 212 211 209 207 207 205 205 204 204
67 62 58 57 55 53 50 47 47 44 45 48 45 42 48 51 50 47 43 44 42 39 39 37 37 41 42 37 35 34 32 32 31 28 28 26 23 22 19 14 13 11 5 358 349 337 323 315 307 300 296 283 268 264 264 263 259 252 244 234 225 222 219 215 213 213 216 217 215 213 212 211 212 214 214 214 214 213 211 208 206 204 204 207 207
68 61 56 56 56 55 55 55 54 51 53 56 56 57 60 61 58 54 52 52 50 45 44 43 41 42 42 40 38 39 39 38 37 36 35 34 33 31 29 27 25 24 25 25 16 0 341 329 323 318 310 295 279 274 274 276 271 255 244 233 222 217 213 212 212 211 211 212 211 211 211 210 211 212 213 214 214 213 212 210 209 206 204 207 209
65 59 60 66 67 64 64 64 63 60 60 61 63 67 67 65 63 60 59 57 55 52 50 49 47 45 45 43 39 41 46 46 43 44 45 44 42 39 37 36 33 29 29 33 32 27 19 11 6 1 348 331 321 311 295 279 269 259 244 229 224 221 212 208 210 213 214 212 209 209 209 208 207 209 211 211 212 212 212 210 209 208 206 206 208
65 67 72 74 74 71 69 68 66 65 64 63 65 68 70 69 66 62 59 57 55 52 49 47 45 44 45 44 40 39 44 46 44 46 49 50 49 48 47 45 43 38 33 33 35 36 36 34 27 23 19 10 5 2 352 338 321 299 264 231 224 221 210 204 206 214 218 215 208 207 208 206 205 206 207 209 209 210 210 209 208 207 206 206 207
73 77 78 77 75 74 72 70 68 66 65 64 65 67 69 69 68 63 59 56 54 51 47 43 41 40 40 41 41 41 42 42 41 42 47 50 51 51 52 52 52 49 45 39 36 37 39 39 33 29 26 16 9 9 6 359 351 338 318 281 245 218 202 200 203 210 217 215 208 204 205 205 204 202 204 207 208 208 209 210 210 209 207 205 206
82 81 79 78 76 75 74 73 70 68 66 66 67 67 67 68 67 65 60 56 53 50 48 44 42 41 40 39 42 43 43 46 46 41 40 45 50 51 51 53 55 56 55 52 48 43 40 41 39 34 28 17 10 11 9 3 354 344 338 325 293 248 212 207 211 213 216 214 207 203 204 204 203 201 203 205 207 209 210 210 211 210 208 205 204
85 83 81 79 77 76 75 74 72 70 68 68 69 69 69 69 68 66 63 59 55 51 48 46 44 43 42 39 41 42 42 45 49 44 36 39 48 52 52 52 53 55 57 57 56 54 50 47 45 38 31 25 17 16 17 14 6 355 347 338 319 295 255 229 226 225 221 212 204 202 203 202 201 200 201 203 207 210 210 210 211 210 207 205 203
88 84 82 80 78 76 75 73 72 70 69 69 71 71 71 70 68 67 64 60 57 54 51 48 45 44 43 40 39 40 41 43 47 46 40 35 43 49 50 49 49 50 53 53 52 53 53 52 51 44 39 35 30 28 29 29 25 14 3 358 348 326 297 266 245 238 235 218 205 199 195 195 197 195 192 197 205 208 208 210 212 209 204 204 203
89 86 83 81 79 78 76 74 72 70 68 68 70 72 72 70 68 66 64 61 58 56 53 50 49 48 47 45 42 41 42 43 45 48 46 39 40 45 46 46 46 47 49 50 51 52 52 53 53 50 46 43 40 38 37 36 36 32 28 27 22 7 340 302 259 242 239 225 209 198 168 173 186 181 176 189 199 203 205 209 212 209 205 203 203
90 88 85 82 80 78 76 74 71 68 65 64 66 68 70 70 67 64 63 61 58 57 54 51 51 51 51 50 47 45 44 43 43 47 48 44 42 44 44 44 44 43 44 48 52 55 54 52 51 50 47 46 44 42 39 37 36 35 36 35 31 24 15 353 297 249 231 219 208 193 145 129 164 159 147 168 185 188 199 205 208 209 206 202 202
89 87 85 83 81 79 76 73 70 67 63 60 61 63 67 70 67 62 61 61 58 57 56 53 52 52 52 52 51 49 47 45 43 45 48 46 43 42 42 42 42 41 39 40 45 49 50 48 47 45 43 41 40 38 37 37 35 36 37 34 26 25 28 18 346 325 260 193 184 174 141 112 137 138 119 122 143 141 165 186 193 203 203 198 198
91 88 86 84 82 79 76 73 71 68 64 60 59 60 63 68 67 61 59 61 59 56 55 55 53 52 52 52 53 52 50 48 46 47 50 49 44 41 40 40 41 40 35 32 34 37 41 42 42 41 40 38 37 35 34 35 35 38 41 36 27 28 33 28 12 1 1 48 74 132 134 120 136 137 116 104 100 83 88 137 158 178 189 190 191
93 90 88 86 83 80 77 74 71 70 66 61 58 58 59 64 66 64 60 60 59 57 55 55 54 53 52 51 53 54 53 52 50 50 52 52 49 44 41 40 41 38 33 29 29 30 32 35 36 37 36 36 36 34 33 34 35 37 40 38 34 34 32 28 25 21 8 359 1 3 143 144 147 143 131 116 84 60 66 96 117 138 159 171 178